Regional Weather Roundup
Issued by NWS State College, PA

Home | Current Version | Previous Version | Graphics & Text | Print | Product List | Glossary Off
Versions: 1 2 3 4 5 6 7 8 9 10 11 12 13 14 15 16 17 18 19 20 21 22 23 24 25 26 27 28 29 30 31 32 33 34 35 36 37 38 39 40 41 42 43 44 45 46 47 48 49 50

000
ASUS41 KCTP 060610
RWRCTP

REGIONAL WEATHER ROUNDUP
NATIONAL WEATHER SERVICE STATE COLLEGE PA
100 AM EST FRI MAR 06 2015

Note: "fair" indicates few or no clouds below 12,000 feet with no
significant weather and/or obstructions to visibility.

* = STATION THAT DOES NOT REPORT PRECIPITATION /E.G. RAIN...SNOW...ETC/
    THUNDER OR FOG.

PAZ002>004-007>009-013>016-020>023-029>032-060700-
WESTERN PENNSYLVANIA

CITY           SKY/WX    TMP DP  RH WIND       PRES   REMARKS
ERIE           PTCLDY     1  -5  75 S5        30.51S WCI  -9
MEADVILLE      MOCLDY     3  -3  76 CALM      30.42F
FRANKLIN*      MOCLDY     0  -6  78 SW3       30.43S
NEW CASTLE     FAIR      -1  -4  87 CALM      30.49F
BEAVER COUNTY  NOT AVBL
BUTLER*        PTCLDY     0  -2  92 CALM      30.46F
PITTSBURGH INT PTCLDY     4  -1  80 CALM      30.46F
PITTSBURGH     PTCLDY     7  -3  64 CALM      30.45F
INDIANA*       CLEAR     -2  -6  84 CALM      30.48F
LATROBE        PTCLDY     0  -2  92 CALM      30.49F
WASHINGTON CO* PTCLDY    -4  -8  84 CALM      30.48S
$$

PAZ004>006-010>012-017>019-024>028-033>037-041-042-045-046-049>053-060700-
CENTRAL PENNSYLVANIA

CITY           SKY/WX    TMP DP  RH WIND       PRES   REMARKS
BRADFORD       CLOUDY     2  -4  76 NW5       30.32F WCI  -8
DUBOIS         CLEAR     -1  -5  82 W3        30.37S
CLEARFIELD     CLEAR      3  -5  69 W3        30.41S
JOHNSTOWN      PTCLDY     2  -4  76 NW16      30.32S WCI -18
ALTOONA        CLEAR      7  -3  64 N10       30.39F WCI  -8
STATE COLLEGE  PTCLDY     7  -3  61 NW7       30.43R WCI  -4
WILLIAMSPORT   CLEAR      9  -4  55 W6        30.47S WCI  -1
SELINSGROVE    CLEAR     11   0  61 NW5       30.46S WCI   3
FT INDIANTOWN  CLEAR     13  -1  53 N6        30.43S WCI   4
CAPITAL CITY   FAIR      15   1  53 W7        30.45S WCI   5
HARRISBURG     FAIR      16   1  51 NW8       30.44S WCI   5
YORK           PTCLDY     8  -2  63 CALM      30.43S
$$

PAZ038>040-043-044-047-048-054-055-060>062-067>071-060700-
EASTERN PENNSYLVANIA

CITY           SKY/WX    TMP DP  RH WIND       PRES   REMARKS
SCRANTON       CLEAR      9  -3  58 N5        30.40S WCI   1
MOUNT POCONO   CLEAR      5  -3  69 NW15G22   30.25F WCI -13
ALLENTOWN      CLEAR     13  -1  54 NW9G20    30.43S WCI   1
QUAKERTOWN*    CLEAR     14   1  57 N7        30.41S WCI   4
READING        CLEAR     13   2  61 N5        30.42F WCI   5
LANCASTER      CLEAR      9   1  70 N6        30.42S WCI  -1
COATESVILLE    CLEAR     16   5  62 N9        30.39S WCI   4
POTTSTOWN      CLEAR     14   2  58 N7        30.44R WCI   4
BLUE BELL      CLEAR     18   9  68 CALM      30.41R
DOYLESTOWN     CLEAR     12   3  67 N8        30.40R WCI   0
WILLOW GROVE   NOT AVBL
NORTH PHILA    CLEAR     18   5  57 N16G22    30.44R WCI   3
PHILADELPHIA   CLEAR     18   6  59 N10       30.44R WCI   6
$$


USA.gov is the U.S. government's official web portal to all federal, state and local government web resources and services.